Time,TemperatureF,DewpointF,PressureIn,WindDirection,WindDirectionDegrees,WindSpeedMPH,WindSpeedGustMPH,Humidity,HourlyPrecipIn,Conditions,Clouds,dailyrainin,SolarRadiationWatts/m^2,SoftwareType,DateUTC
2013-07-23 00:03:00,64.5,57.5,29.95,NW,324,1.9,4.0,78,0.00,FEW,,0.00,0.0,WeatherDisplay:10.37,2013-07-23 05:03:00,
2013-07-23 00:08:00,64.3,57.3,29.95,NNW,329,0.6,2.3,78,0.00,FEW,,0.00,0.0,WeatherDisplay:10.37,2013-07-23 05:08:00,
2013-07-23 00:13:00,64.1,57.1,29.95,NW,319,1.8,5.0,78,0.00,FEW,,0.00,0.0,WeatherDisplay:10.37,2013-07-23 05:13:00,
2013-07-23 00:17:00,64.0,57.4,29.95,NW,313,1.2,4.6,79,0.00,FEW,,0.00,0.0,WeatherDisplay:10.37,2013-07-23 05:17:00,
2013-07-23 00:22:00,63.8,57.2,29.95,NNW,327,1.1,3.5,79,0.00,FEW,,0.00,0.0,WeatherDisplay:10.37,2013-07-23 05:22:00,
2013-07-23 00:27:00,63.6,57.3,29.95,NNW,327,0.2,1.2,80,0.00,FEW,,0.00,0.0,WeatherDisplay:10.37,2013-07-23 05:27:00,
2013-07-23 00:32:00,63.4,57.5,29.95,NNW,333,0.9,3.5,81,0.00,FEW,,0.00,0.0,WeatherDisplay:10.37,2013-07-23 05:32:00,
2013-07-23 00:37:00,63.2,57.6,29.95,NNW,333,1.2,3.0,82,0.00,FEW,,0.00,0.0,WeatherDisplay:10.37,2013-07-23 05:37:00,
2013-07-23 00:42:00,63.1,57.5,29.95,NW,320,1.8,4.0,82,0.00,FEW,,0.00,0.0,WeatherDisplay:10.37,2013-07-23 05:42:00,
2013-07-23 00:47:00,63.0,57.4,29.95,NW,325,1.3,3.0,82,0.00,FEW,,0.00,0.0,WeatherDisplay:10.37,2013-07-23 05:47:00,
2013-07-23 00:52:00,62.9,57.3,29.95,NNW,337,0.7,3.5,82,0.00,FEW,,0.00,0.0,WeatherDisplay:10.37,2013-07-23 05:52:00,
2013-07-23 00:57:00,62.7,57.1,29.95,NNW,329,0.9,2.3,82,0.00,FEW,,0.00,0.0,WeatherDisplay:10.37,2013-07-23 05:57:00,
2013-07-23 01:02:00,62.6,57.0,29.95,NW,311,1.6,4.0,82,0.00,FEW,,0.00,0.0,WeatherDisplay:10.37,2013-07-23 06:02:00,
2013-07-23 01:07:00,62.5,56.9,29.95,NNW,334,0.2,4.6,82,0.00,FEW,,0.00,0.0,WeatherDisplay:10.37,2013-07-23 06:07:00,
2013-07-23 01:12:00,62.3,56.7,29.95,NW,323,0.3,4.0,82,0.00,FEW,,0.00,0.0,WeatherDisplay:10.37,2013-07-23 06:12:00,
2013-07-23 01:17:00,62.2,56.6,29.96,NNW,339,1.1,3.5,82,0.00,FEW,,0.00,0.0,WeatherDisplay:10.37,2013-07-23 06:17:00,
2013-07-23 01:22:00,62.2,56.6,29.96,North,360,1.8,6.0,82,0.00,FEW,,0.00,0.0,WeatherDisplay:10.37,2013-07-23 06:22:00,
2013-07-23 01:27:00,62.1,56.5,29.96,NNW,336,2.3,6.0,82,0.00,FEW,,0.00,0.0,WeatherDisplay:10.37,2013-07-23 06:27:00,
2013-07-23 01:32:00,61.9,56.3,29.96,North,355,1.7,6.0,82,0.00,FEW,,0.00,0.0,WeatherDisplay:10.37,2013-07-23 06:32:00,
2013-07-23 01:37:00,61.8,56.2,29.97,NW,322,2.4,4.0,82,0.00,FEW,,0.00,0.0,WeatherDisplay:10.37,2013-07-23 06:37:00,
2013-07-23 01:42:00,61.7,56.1,29.96,NNW,343,1.7,4.0,82,0.00,FEW,,0.00,0.0,WeatherDisplay:10.37,2013-07-23 06:42:00,
2013-07-23 01:47:00,61.7,56.1,29.96,NW,324,1.4,3.5,82,0.00,FEW,,0.00,0.0,WeatherDisplay:10.37,2013-07-23 06:47:00,
2013-07-23 01:52:00,61.6,56.0,29.96,NW,315,1.4,3.5,82,0.00,FEW,,0.00,0.0,WeatherDisplay:10.37,2013-07-23 06:52:00,
2013-07-23 01:57:00,61.4,56.2,29.96,NNW,328,2.7,5.0,83,0.00,FEW,,0.00,0.0,WeatherDisplay:10.37,2013-07-23 06:57:00,
2013-07-23 02:02:00,61.3,56.1,29.96,NW,307,1.6,7.0,83,0.00,FEW,,0.00,0.0,WeatherDisplay:10.37,2013-07-23 07:02:00,
2013-07-23 02:07:00,61.2,56.0,29.97,NW,315,1.6,3.5,83,0.00,FEW,,0.00,0.0,WeatherDisplay:10.37,2013-07-23 07:07:00,
2013-07-23 02:12:00,61.1,56.2,29.97,North,9,0.4,8.1,84,0.00,FEW,,0.00,0.0,WeatherDisplay:10.37,2013-07-23 07:12:00,
2013-07-23 02:17:00,61.0,55.8,29.97,WNW,302,4.1,8.0,83,0.00,FEW,,0.00,0.0,WeatherDisplay:10.37,2013-07-23 07:17:00,
2013-07-23 02:22:00,60.9,55.7,29.97,NW,325,4.9,9.2,83,0.00,FEW,,0.00,0.0,WeatherDisplay:10.37,2013-07-23 07:22:00,
2013-07-23 02:27:00,60.8,55.6,29.97,North,350,2.6,6.0,83,0.00,FEW,,0.00,0.0,WeatherDisplay:10.37,2013-07-23 07:27:00,
2013-07-23 02:32:00,60.7,55.5,29.97,NNW,336,0.8,4.0,83,0.00,FEW,,0.00,0.0,WeatherDisplay:10.37,2013-07-23 07:32:00,
2013-07-23 02:37:00,60.7,55.5,29.97,North,5,2.5,5.0,83,0.00,FEW,,0.00,0.0,WeatherDisplay:10.37,2013-07-23 07:37:00,
2013-07-23 02:42:00,60.6,55.4,29.97,NNE,21,0.7,3.5,83,0.00,FEW,,0.00,0.0,WeatherDisplay:10.37,2013-07-23 07:42:00,
2013-07-23 02:47:00,60.5,55.3,29.97,NW,315,1.5,5.0,83,0.00,FEW,,0.00,0.0,WeatherDisplay:10.37,2013-07-23 07:47:00,
2013-07-23 02:52:00,60.4,55.2,29.97,NW,313,1.4,3.5,83,0.00,FEW,,0.00,0.0,WeatherDisplay:10.37,2013-07-23 07:52:00,
2013-07-23 02:57:00,60.3,55.1,29.97,NNW,342,3.8,6.0,83,0.00,FEW,,0.00,0.0,WeatherDisplay:10.37,2013-07-23 07:57:00,
2013-07-23 03:02:00,60.1,55.2,29.97,NW,317,0.9,3.0,84,0.00,CLR,,0.00,0.0,WeatherDisplay:10.37,2013-07-23 08:02:00,
2013-07-23 03:07:00,59.9,55.4,29.97,WNW,298,2.7,5.8,85,0.00,CLR,,0.00,0.0,WeatherDisplay:10.37,2013-07-23 08:07:00,
2013-07-23 03:12:00,59.8,55.3,29.97,North,5,4.2,6.0,85,0.00,CLR,,0.00,0.0,WeatherDisplay:10.37,2013-07-23 08:12:00,
2013-07-23 03:17:00,59.7,55.2,29.97,NNW,333,2.1,6.0,85,0.00,CLR,,0.00,0.0,WeatherDisplay:10.37,2013-07-23 08:17:00,
2013-07-23 03:22:00,59.5,55.0,29.97,North,11,3.5,6.0,85,0.00,CLR,,0.00,0.0,WeatherDisplay:10.37,2013-07-23 08:22:00,
2013-07-23 03:27:00,59.5,55.3,29.97,NW,315,2.1,3.5,86,0.00,CLR,,0.00,0.0,WeatherDisplay:10.37,2013-07-23 08:27:00,
2013-07-23 03:32:00,59.5,55.3,29.97,NW,318,1.4,3.5,86,0.00,CLR,,0.00,0.0,WeatherDisplay:10.37,2013-07-23 08:32:00,
2013-07-23 03:37:00,59.4,55.2,29.97,North,350,1.0,3.5,86,0.00,CLR,,0.00,0.0,WeatherDisplay:10.37,2013-07-23 08:37:00,
2013-07-23 03:42:00,59.3,55.1,29.97,North,5,0.6,3.5,86,0.00,CLR,,0.00,0.0,WeatherDisplay:10.37,2013-07-23 08:42:00,
2013-07-23 03:47:00,59.2,55.3,29.98,NNW,331,0.8,3.5,87,0.00,CLR,,0.00,0.0,WeatherDisplay:10.37,2013-07-23 08:47:00,
2013-07-23 03:52:00,59.1,55.2,29.97,North,360,1.2,4.0,87,0.00,CLR,,0.00,0.0,WeatherDisplay:10.37,2013-07-23 08:52:00,
2013-07-23 03:57:00,58.9,55.0,29.97,North,5,2.4,4.0,87,0.00,CLR,,0.00,0.0,WeatherDisplay:10.37,2013-07-23 08:57:00,
2013-07-23 04:02:00,58.7,55.2,29.97,NNW,338,1.2,3.5,88,0.00,CLR,,0.00,0.0,WeatherDisplay:10.37,2013-07-23 09:02:00,
2013-07-23 04:07:00,58.7,55.2,29.97,North,350,2.2,4.0,88,0.00,CLR,,0.00,0.0,WeatherDisplay:10.37,2013-07-23 09:07:00,
2013-07-23 04:12:00,58.6,55.1,29.97,North,350,0.6,2.3,88,0.00,CLR,,0.00,0.0,WeatherDisplay:10.37,2013-07-23 09:12:00,
2013-07-23 04:17:00,58.6,55.1,29.98,NNW,333,0.9,3.5,88,0.00,CLR,,0.00,0.0,WeatherDisplay:10.37,2013-07-23 09:17:00,
2013-07-23 04:22:00,58.5,55.0,29.98,NNW,328,1.0,3.5,88,0.00,CLR,,0.00,0.0,WeatherDisplay:10.37,2013-07-23 09:22:00,
2013-07-23 04:27:00,58.3,54.8,29.98,NW,321,0.0,0.0,88,0.00,CLR,,0.00,0.0,WeatherDisplay:10.37,2013-07-23 09:27:00,
2013-07-23 04:32:00,58.2,54.7,29.98,NW,321,1.0,3.5,88,0.00,CLR,,0.00,0.0,WeatherDisplay:10.37,2013-07-23 09:32:00,
2013-07-23 04:37:00,58.1,54.6,29.98,NW,321,0.4,2.3,88,0.00,CLR,,0.00,0.0,WeatherDisplay:10.37,2013-07-23 09:37:00,
2013-07-23 04:42:00,58.0,54.8,29.99,North,5,0.2,1.2,89,0.00,CLR,,0.00,0.0,WeatherDisplay:10.37,2013-07-23 09:42:00,
2013-07-23 04:47:00,57.8,54.6,29.99,North,360,0.4,3.5,89,0.00,CLR,,0.00,0.0,WeatherDisplay:10.37,2013-07-23 09:47:00,
2013-07-23 04:52:00,57.8,54.6,29.99,North,355,1.2,2.3,89,0.00,CLR,,0.00,0.0,WeatherDisplay:10.37,2013-07-23 09:52:00,
2013-07-23 04:57:00,57.7,54.5,29.99,North,360,0.2,3.5,89,0.00,CLR,,0.00,0.0,WeatherDisplay:10.37,2013-07-23 09:57:00,
2013-07-23 05:02:00,57.7,54.8,29.99,North,355,1.2,3.5,90,0.00,CLR,,0.00,0.0,WeatherDisplay:10.37,2013-07-23 10:02:00,
2013-07-23 05:07:00,57.6,54.7,29.99,NW,321,0.1,1.2,90,0.00,CLR,,0.00,0.0,WeatherDisplay:10.37,2013-07-23 10:07:00,
2013-07-23 05:12:00,57.6,54.7,29.99,North,355,0.1,1.2,90,0.00,CLR,,0.00,0.0,WeatherDisplay:10.37,2013-07-23 10:12:00,
2013-07-23 05:17:00,57.5,54.6,29.99,North,360,0.1,2.3,90,0.00,CLR,,0.00,0.0,WeatherDisplay:10.37,2013-07-23 10:17:00,
2013-07-23 05:22:00,57.3,54.4,29.99,NNW,334,0.1,2.0,90,0.00,CLR,,0.00,0.0,WeatherDisplay:10.37,2013-07-23 10:22:00,
2013-07-23 05:27:00,57.2,54.3,29.99,NNW,338,1.8,3.5,90,0.00,CLR,,0.00,0.0,WeatherDisplay:10.37,2013-07-23 10:27:00,
2013-07-23 05:32:00,57.1,54.2,29.99,NNW,329,1.1,3.5,90,0.00,CLR,,0.00,0.0,WeatherDisplay:10.37,2013-07-23 10:32:00,
2013-07-23 05:37:00,57.0,54.1,29.99,North,350,1.4,3.5,90,0.00,CLR,,0.00,0.0,WeatherDisplay:10.37,2013-07-23 10:37:00,
2013-07-23 05:42:00,56.9,54.0,29.99,North,355,2.0,4.0,90,0.00,CLR,,0.00,0.0,WeatherDisplay:10.37,2013-07-23 10:42:00,
2013-07-23 05:47:00,56.8,54.2,29.99,North,351,0.8,3.5,91,0.00,CLR,,0.00,0.0,WeatherDisplay:10.37,2013-07-23 10:47:00,
2013-07-23 05:52:00,56.7,54.1,29.99,North,355,1.6,4.0,91,0.00,CLR,,0.00,5.0,WeatherDisplay:10.37,2013-07-23 10:52:00,
2013-07-23 05:57:00,56.7,54.1,30.00,NNW,345,1.0,3.0,91,0.00,CLR,,0.00,7.0,WeatherDisplay:10.37,2013-07-23 10:57:00,
2013-07-23 06:02:00,56.7,54.1,30.00,North,355,1.6,3.5,91,0.00,CLR,,0.00,11.0,WeatherDisplay:10.37,2013-07-23 11:02:00,
2013-07-23 06:07:00,56.6,54.0,30.00,NNW,336,0.9,2.3,91,0.00,CLR,,0.00,12.0,WeatherDisplay:10.37,2013-07-23 11:07:00,
2013-07-23 06:12:00,56.5,53.9,30.00,North,350,0.4,2.3,91,0.00,CLR,,0.00,18.0,WeatherDisplay:10.37,2013-07-23 11:12:00,
2013-07-23 06:17:00,56.4,53.8,30.00,North,360,2.4,4.0,91,0.00,CLR,,0.00,21.0,WeatherDisplay:10.37,2013-07-23 11:17:00,
2013-07-23 06:22:00,56.5,53.9,30.00,NNW,345,1.5,4.0,91,0.00,CLR,,0.00,26.0,WeatherDisplay:10.37,2013-07-23 11:22:00,
2013-07-23 06:27:00,56.5,53.9,30.00,NNW,342,1.5,3.5,91,0.00,CLR,,0.00,30.0,WeatherDisplay:10.37,2013-07-23 11:27:00,
2013-07-23 06:32:00,56.6,54.0,30.01,NNW,331,0.7,2.3,91,0.00,CLR,,0.00,35.0,WeatherDisplay:10.37,2013-07-23 11:32:00,
2013-07-23 06:37:00,56.8,54.5,30.01,NW,326,0.6,5.0,92,0.00,CLR,,0.00,40.0,WeatherDisplay:10.37,2013-07-23 11:37:00,
2013-07-23 06:42:00,57.0,54.4,30.02,NNW,340,1.8,4.0,91,0.00,CLR,,0.00,42.0,WeatherDisplay:10.37,2013-07-23 11:42:00,
2013-07-23 06:47:00,57.1,54.5,30.02,NNW,331,0.3,2.3,91,0.00,CLR,,0.00,46.0,WeatherDisplay:10.37,2013-07-23 11:47:00,
2013-07-23 06:52:00,57.3,54.7,30.02,NW,321,2.0,4.0,91,0.00,CLR,,0.00,53.0,WeatherDisplay:10.37,2013-07-23 11:52:00,
2013-07-23 06:57:00,57.6,54.7,30.02,North,360,1.5,4.0,90,0.00,CLR,,0.00,56.0,WeatherDisplay:10.37,2013-07-23 11:57:00,
2013-07-23 07:02:00,57.8,54.9,30.03,North,349,0.6,2.3,90,0.00,CLR,,0.00,107.0,WeatherDisplay:10.37,2013-07-23 12:02:00,
2013-07-23 07:07:00,58.1,55.2,30.03,NW,315,2.5,6.0,90,0.00,CLR,,0.00,120.0,WeatherDisplay:10.37,2013-07-23 12:07:00,
2013-07-23 07:12:00,58.4,55.5,30.03,NNW,327,1.2,3.5,90,0.00,CLR,,0.00,155.0,WeatherDisplay:10.37,2013-07-23 12:12:00,
2013-07-23 07:17:00,59.0,55.8,30.03,North,355,0.8,3.5,89,0.00,CLR,,0.00,156.0,WeatherDisplay:10.37,2013-07-23 12:17:00,
2013-07-23 07:22:00,59.4,55.8,30.04,North,355,0.6,3.5,88,0.00,CLR,,0.00,188.0,WeatherDisplay:10.37,2013-07-23 12:22:00,
2013-07-23 07:27:00,59.6,56.0,30.04,NNW,343,1.6,4.0,88,0.00,CLR,,0.00,200.0,WeatherDisplay:10.37,2013-07-23 12:27:00,
2013-07-23 07:32:00,59.9,56.0,30.05,NNW,337,1.4,2.3,87,0.00,CLR,,0.00,218.0,WeatherDisplay:10.37,2013-07-23 12:32:00,
2013-07-23 07:37:00,60.2,56.3,30.05,NNW,346,2.4,5.0,87,0.00,CLR,,0.00,232.0,WeatherDisplay:10.37,2013-07-23 12:37:00,
2013-07-23 07:42:00,60.6,56.4,30.05,NNW,328,1.4,3.5,86,0.00,CLR,,0.00,197.0,WeatherDisplay:10.37,2013-07-23 12:42:00,
2013-07-23 07:47:00,60.6,56.1,30.05,NW,318,2.5,4.0,85,0.00,CLR,,0.00,123.0,WeatherDisplay:10.37,2013-07-23 12:47:00,
2013-07-23 07:52:00,60.5,56.3,30.05,NW,318,1.6,3.5,86,0.00,CLR,,0.00,127.0,WeatherDisplay:10.37,2013-07-23 12:52:00,
2013-07-23 07:57:00,60.5,56.6,30.05,NNW,334,0.9,3.5,87,0.00,CLR,,0.00,269.0,WeatherDisplay:10.37,2013-07-23 12:57:00,
2013-07-23 08:02:00,61.0,56.8,30.05,NNW,327,0.5,2.3,86,0.00,CLR,,0.00,283.0,WeatherDisplay:10.37,2013-07-23 13:02:00,
2013-07-23 08:07:00,61.4,56.8,30.05,North,355,0.8,3.0,85,0.00,CLR,,0.00,297.0,WeatherDisplay:10.37,2013-07-23 13:07:00,
2013-07-23 08:12:00,61.6,57.0,30.05,North,360,1.6,3.5,85,0.00,CLR,,0.00,311.0,WeatherDisplay:10.37,2013-07-23 13:12:00,
2013-07-23 08:17:00,62.1,57.2,30.05,NNE,12,2.0,4.0,84,0.00,CLR,,0.00,325.0,WeatherDisplay:10.37,2013-07-23 13:17:00,
2013-07-23 08:22:00,62.4,57.2,30.05,ENE,61,1.4,4.0,83,0.00,CLR,,0.00,343.0,WeatherDisplay:10.37,2013-07-23 13:22:00,
2013-07-23 08:27:00,63.0,57.4,30.05,NNW,330,3.0,5.0,82,0.00,CLR,,0.00,355.0,WeatherDisplay:10.37,2013-07-23 13:27:00,
2013-07-23 08:32:00,63.2,56.9,30.05,ENE,63,3.4,5.0,80,0.00,CLR,,0.00,367.0,WeatherDisplay:10.37,2013-07-23 13:32:00,
2013-07-23 08:37:00,63.6,57.3,30.05,North,355,1.7,4.6,80,0.00,CLR,,0.00,383.0,WeatherDisplay:10.37,2013-07-23 13:37:00,
2013-07-23 08:42:00,63.8,57.2,30.05,NNW,343,1.5,3.5,79,0.00,CLR,,0.00,397.0,WeatherDisplay:10.37,2013-07-23 13:42:00,
2013-07-23 08:47:00,64.1,56.7,30.05,NNE,32,4.4,8.0,77,0.00,CLR,,0.00,410.0,WeatherDisplay:10.37,2013-07-23 13:47:00,
2013-07-23 08:52:00,64.4,56.7,30.05,North,5,2.7,5.0,76,0.00,CLR,,0.00,425.0,WeatherDisplay:10.37,2013-07-23 13:52:00,
2013-07-23 08:57:00,64.9,56.4,30.05,North,11,2.7,5.8,74,0.00,CLR,,0.00,438.0,WeatherDisplay:10.37,2013-07-23 13:57:00,
2013-07-23 09:02:00,65.2,56.3,30.05,NNE,24,2.6,5.0,73,0.00,CLR,,0.00,450.0,WeatherDisplay:10.37,2013-07-23 14:02:00,
2013-07-23 09:07:00,65.7,56.4,30.05,WNW,301,5.0,8.0,72,0.00,CLR,,0.00,464.0,WeatherDisplay:10.37,2013-07-23 14:07:00,
2013-07-23 09:12:00,65.7,56.0,30.05,NE,48,4.3,8.1,71,0.00,CLR,,0.00,476.0,WeatherDisplay:10.37,2013-07-23 14:12:00,
2013-07-23 09:17:00,65.7,56.0,30.05,North,360,6.2,10.4,71,0.00,CLR,,0.00,492.0,WeatherDisplay:10.37,2013-07-23 14:17:00,
2013-07-23 09:22:00,65.9,56.2,30.05,NNE,27,3.9,10.4,71,0.00,CLR,,0.00,506.0,WeatherDisplay:10.37,2013-07-23 14:22:00,
2013-07-23 09:27:00,66.1,56.4,30.05,NE,52,4.1,7.0,71,0.00,CLR,,0.00,520.0,WeatherDisplay:10.37,2013-07-23 14:27:00,
2013-07-23 09:32:00,66.3,56.2,30.05,NNW,347,2.1,10.4,70,0.00,CLR,,0.00,533.0,WeatherDisplay:10.37,2013-07-23 14:32:00,
2013-07-23 09:37:00,66.6,55.7,30.05,ENE,57,5.0,10.4,68,0.00,CLR,,0.00,543.0,WeatherDisplay:10.37,2013-07-23 14:37:00,
2013-07-23 09:42:00,67.0,55.7,30.06,NNW,331,3.0,7.0,67,0.00,CLR,,0.00,561.0,WeatherDisplay:10.37,2013-07-23 14:42:00,
2013-07-23 09:47:00,67.4,56.1,30.06,North,360,2.6,7.0,67,0.00,CLR,,0.00,570.0,WeatherDisplay:10.37,2013-07-23 14:47:00,
2013-07-23 09:52:00,67.5,56.2,30.06,NE,50,3.1,6.0,67,0.00,CLR,,0.00,585.0,WeatherDisplay:10.37,2013-07-23 14:52:00,
2013-07-23 09:57:00,67.6,56.2,30.06,NE,38,3.8,11.5,67,0.00,CLR,,0.00,598.0,WeatherDisplay:10.37,2013-07-23 14:57:00,
2013-07-23 10:02:00,67.6,56.2,30.06,NNW,338,2.3,4.0,67,0.00,CLR,,0.00,610.0,WeatherDisplay:10.37,2013-07-23 15:02:00,
2013-07-23 10:07:00,67.9,56.5,30.06,NE,47,4.0,9.2,67,0.00,CLR,,0.00,619.0,WeatherDisplay:10.37,2013-07-23 15:07:00,
2013-07-23 10:12:00,68.3,56.1,30.06,North,5,4.6,7.0,65,0.00,CLR,,0.00,631.0,WeatherDisplay:10.37,2013-07-23 15:12:00,
2013-07-23 10:17:00,68.6,55.9,30.06,North,355,4.1,9.2,64,0.00,CLR,,0.00,640.0,WeatherDisplay:10.37,2013-07-23 15:17:00,
2013-07-23 10:22:00,69.1,55.5,30.06,NNE,19,3.6,5.0,62,0.00,CLR,,0.00,656.0,WeatherDisplay:10.37,2013-07-23 15:22:00,
2013-07-23 10:27:00,69.1,55.1,30.07,NNE,26,4.5,8.0,61,0.00,CLR,,0.00,670.0,WeatherDisplay:10.37,2013-07-23 15:27:00,
2013-07-23 10:32:00,69.4,55.8,30.07,North,5,2.3,11.5,62,0.00,CLR,,0.00,679.0,WeatherDisplay:10.37,2013-07-23 15:32:00,
2013-07-23 10:37:00,69.8,56.2,30.07,North,355,2.9,5.0,62,0.00,CLR,,0.00,691.0,WeatherDisplay:10.37,2013-07-23 15:37:00,
2013-07-23 10:42:00,70.4,55.8,30.07,North,355,2.8,8.1,60,0.00,CLR,,0.00,703.0,WeatherDisplay:10.37,2013-07-23 15:42:00,
2013-07-23 10:47:00,70.3,56.2,30.07,North,5,3.8,6.0,61,0.00,CLR,,0.00,714.0,WeatherDisplay:10.37,2013-07-23 15:47:00,
2013-07-23 10:52:00,70.4,54.9,30.07,North,360,4.9,11.5,58,0.00,CLR,,0.00,726.0,WeatherDisplay:10.37,2013-07-23 15:52:00,
2013-07-23 10:57:00,70.6,55.6,30.07,NNW,340,4.4,8.1,59,0.00,CLR,,0.00,728.0,WeatherDisplay:10.37,2013-07-23 15:57:00,
2013-07-23 11:02:00,70.5,54.5,30.07,NNE,14,7.3,10.4,57,0.00,CLR,,0.00,742.0,WeatherDisplay:10.37,2013-07-23 16:02:00,
2013-07-23 11:07:00,70.3,55.3,30.07,NNE,31,2.1,9.2,59,0.00,CLR,,0.00,749.0,WeatherDisplay:10.37,2013-07-23 16:07:00,
2013-07-23 11:12:00,70.8,55.8,30.07,North,355,4.2,7.0,59,0.00,CLR,,0.00,754.0,WeatherDisplay:10.37,2013-07-23 16:12:00,
2013-07-23 11:17:00,71.0,55.9,30.07,ENE,76,2.6,5.8,59,0.00,CLR,,0.00,765.0,WeatherDisplay:10.37,2013-07-23 16:17:00,
2013-07-23 11:22:00,71.2,55.7,30.07,NNW,344,2.6,6.9,58,0.00,CLR,,0.00,775.0,WeatherDisplay:10.37,2013-07-23 16:22:00,
2013-07-23 11:27:00,71.7,55.7,30.07,NNE,32,3.8,7.0,57,0.00,CLR,,0.00,782.0,WeatherDisplay:10.37,2013-07-23 16:27:00,
2013-07-23 11:32:00,72.1,55.5,30.07,NNW,342,2.2,5.0,56,0.00,CLR,,0.00,793.0,WeatherDisplay:10.37,2013-07-23 16:32:00,
2013-07-23 11:37:00,72.1,55.5,30.08,NNW,346,3.5,8.0,56,0.00,CLR,,0.00,798.0,WeatherDisplay:10.37,2013-07-23 16:37:00,
2013-07-23 11:42:00,72.2,55.1,30.07,North,355,3.7,5.0,55,0.00,CLR,,0.00,807.0,WeatherDisplay:10.37,2013-07-23 16:42:00,
2013-07-23 11:47:00,72.4,54.8,30.07,NNE,28,4.3,8.1,54,0.00,CLR,,0.00,812.0,WeatherDisplay:10.37,2013-07-23 16:47:00,
2013-07-23 11:52:00,72.2,53.6,30.07,NE,44,3.8,11.5,52,0.00,CLR,,0.00,819.0,WeatherDisplay:10.37,2013-07-23 16:52:00,
2013-07-23 11:57:00,72.5,53.9,30.07,NNE,24,4.0,8.0,52,0.00,CLR,,0.00,824.0,WeatherDisplay:10.37,2013-07-23 16:57:00,
2013-07-23 12:02:00,72.8,54.1,30.07,NE,49,4.5,8.1,52,0.00,CLR,,0.00,831.0,WeatherDisplay:10.37,2013-07-23 17:02:00,
2013-07-23 12:07:00,72.3,54.2,30.07,North,349,1.0,3.5,53,0.00,CLR,,0.00,835.0,WeatherDisplay:10.37,2013-07-23 17:07:00,
2013-07-23 12:12:00,73.0,52.7,30.07,North,10,4.8,8.1,49,0.00,CLR,,0.00,842.0,WeatherDisplay:10.37,2013-07-23 17:12:00,
2013-07-23 12:17:00,73.4,54.7,30.07,NNE,13,4.5,7.0,52,0.00,CLR,,0.00,844.0,WeatherDisplay:10.37,2013-07-23 17:17:00,
2013-07-23 12:22:00,73.6,54.4,30.07,North,9,4.0,10.0,51,0.00,CLR,,0.00,849.0,WeatherDisplay:10.37,2013-07-23 17:22:00,
2013-07-23 12:27:00,74.1,53.7,30.07,WNW,288,3.1,5.0,49,0.00,CLR,,0.00,853.0,WeatherDisplay:10.37,2013-07-23 17:27:00,
2013-07-23 12:32:00,74.2,52.7,30.07,North,11,5.2,8.1,47,0.00,CLR,,0.00,858.0,WeatherDisplay:10.37,2013-07-23 17:32:00,
2013-07-23 12:37:00,74.0,52.5,30.07,ENE,66,3.7,9.2,47,0.00,CLR,,0.00,863.0,WeatherDisplay:10.37,2013-07-23 17:37:00,
2013-07-23 12:42:00,73.7,52.8,30.07,ENE,72,3.9,8.0,48,0.00,CLR,,0.00,863.0,WeatherDisplay:10.37,2013-07-23 17:42:00,
2013-07-23 12:47:00,73.8,52.3,30.07,North,355,3.8,7.0,47,0.00,CLR,,0.00,867.0,WeatherDisplay:10.37,2013-07-23 17:47:00,
2013-07-23 12:52:00,74.8,52.6,30.07,WSW,255,6.2,9.0,46,0.00,CLR,,0.00,868.0,WeatherDisplay:10.37,2013-07-23 17:52:00,
2013-07-23 12:57:00,74.9,52.7,30.06,NNE,25,3.5,6.0,46,0.00,CLR,,0.00,867.0,WeatherDisplay:10.37,2013-07-23 17:57:00,
2013-07-23 13:02:00,75.3,53.1,30.06,NNW,330,2.8,8.0,46,0.00,CLR,,0.00,870.0,WeatherDisplay:10.37,2013-07-23 18:02:00,
2013-07-23 13:08:00,75.7,54.0,30.06,NNE,13,4.2,7.0,47,0.00,CLR,,0.00,870.0,WeatherDisplay:10.37,2013-07-23 18:08:00,
2013-07-23 13:15:00,75.2,54.2,30.06,NE,39,8.0,11.5,48,0.00,CLR,,0.00,870.0,WeatherDisplay:10.37,2013-07-23 18:15:00,
2013-07-23 13:20:00,75.0,54.0,30.06,ENE,77,5.2,9.2,48,0.00,CLR,,0.00,875.0,WeatherDisplay:10.37,2013-07-23 18:20:00,
2013-07-23 13:25:00,74.9,53.9,30.06,ENE,74,1.6,3.5,48,0.00,CLR,,0.00,874.0,WeatherDisplay:10.37,2013-07-23 18:25:00,
2013-07-23 13:30:00,75.4,53.8,30.06,NNW,329,3.1,6.0,47,0.00,CLR,,0.00,874.0,WeatherDisplay:10.37,2013-07-23 18:30:00,
2013-07-23 13:35:00,75.5,53.9,30.06,NE,56,5.0,8.0,47,0.00,CLR,,0.00,872.0,WeatherDisplay:10.37,2013-07-23 18:35:00,
2013-07-23 13:40:00,75.1,52.9,30.06,ENE,67,2.5,8.1,46,0.00,CLR,,0.00,872.0,WeatherDisplay:10.37,2013-07-23 18:40:00,
2013-07-23 13:45:00,74.7,54.3,30.06,NW,313,1.7,4.0,49,0.00,CLR,,0.00,867.0,WeatherDisplay:10.37,2013-07-23 18:45:00,
2013-07-23 13:50:00,75.1,53.5,30.06,NNE,32,1.0,3.5,47,0.00,CLR,,0.00,868.0,WeatherDisplay:10.37,2013-07-23 18:50:00,
2013-07-23 13:55:00,76.0,54.3,30.06,NE,38,5.0,9.0,47,0.00,CLR,CLR,0.00,868.0,WeatherDisplay:10.37,2013-07-23 18:55:00,
2013-07-23 14:00:00,75.7,51.6,30.06,NNE,21,5.0,10.0,43,0.00,CLR,CLR,0.00,867.0,WeatherDisplay:10.37,2013-07-23 19:00:00,
2013-07-23 14:05:00,75.8,52.3,30.06,NNE,29,2.0,7.0,44,0.00,CLR,CLR,0.00,865.0,WeatherDisplay:10.37,2013-07-23 19:05:00,
2013-07-23 14:10:00,76.0,51.9,30.06,NNE,30,5.0,8.0,43,0.00,CLR,CLR,0.00,861.0,WeatherDisplay:10.37,2013-07-23 19:10:00,
2013-07-23 14:15:00,75.7,52.2,30.06,NE,43,3.0,9.0,44,0.00,CLR,CLR,0.00,854.0,WeatherDisplay:10.37,2013-07-23 19:15:00,
2013-07-23 14:20:00,75.9,51.8,30.06,NE,47,2.0,6.0,43,0.00,CLR,CLR,0.00,853.0,WeatherDisplay:10.37,2013-07-23 19:20:00,
2013-07-23 14:26:00,76.8,52.0,30.06,NNE,32,4.2,8.1,42,0.00,CLR,,0.00,849.0,WeatherDisplay:10.37,2013-07-23 19:26:00,
2013-07-23 14:31:00,76.0,52.5,30.06,NNE,24,2.5,5.0,44,0.00,CLR,,0.00,844.0,WeatherDisplay:10.37,2013-07-23 19:31:00,
2013-07-23 14:38:00,76.7,51.2,30.06,NE,52,3.8,7.0,41,0.00,CLR,,0.00,838.0,WeatherDisplay:10.37,2013-07-23 19:38:00,
2013-07-23 14:44:00,76.4,53.5,30.06,ENE,65,3.3,7.0,45,0.00,CLR,,0.00,831.0,WeatherDisplay:10.37,2013-07-23 19:44:00,
2013-07-23 14:50:00,77.5,53.2,30.06,NNE,15,2.2,6.0,43,0.00,CLR,,0.00,821.0,WeatherDisplay:10.37,2013-07-23 19:50:00,
2013-07-23 14:55:00,77.1,52.9,30.06,NE,46,1.9,4.0,43,0.00,CLR,,0.00,819.0,WeatherDisplay:10.37,2013-07-23 19:55:00,
2013-07-23 15:00:00,77.8,51.5,30.06,North,6,6.0,10.0,40,0.00,CLR,CLR,0.00,810.0,WeatherDisplay:10.37,2013-07-23 20:00:00,
2013-07-23 15:07:00,77.9,50.9,30.06,NNW,348,1.5,6.9,39,0.00,CLR,,0.00,810.0,WeatherDisplay:10.37,2013-07-23 20:07:00,
2013-07-23 15:12:00,77.6,52.0,30.06,NE,51,3.5,7.0,41,0.00,CLR,,0.00,807.0,WeatherDisplay:10.37,2013-07-23 20:12:00,
2013-07-23 15:17:00,77.5,51.9,30.06,NE,42,2.9,7.0,41,0.00,CLR,,0.00,795.0,WeatherDisplay:10.37,2013-07-23 20:17:00,
2013-07-23 15:22:00,77.3,52.4,30.06,North,355,0.9,4.6,42,0.00,CLR,,0.00,788.0,WeatherDisplay:10.37,2013-07-23 20:22:00,
2013-07-23 15:27:00,77.5,51.9,30.06,North,355,3.7,6.0,41,0.00,CLR,,0.00,779.0,WeatherDisplay:10.37,2013-07-23 20:27:00,
2013-07-23 15:32:00,77.5,52.6,30.06,NE,55,1.4,7.0,42,0.00,CLR,,0.00,770.0,WeatherDisplay:10.37,2013-07-23 20:32:00,
2013-07-23 15:37:00,77.5,51.9,30.06,North,349,3.9,6.0,41,0.00,CLR,,0.00,761.0,WeatherDisplay:10.37,2013-07-23 20:37:00,
2013-07-23 15:42:00,77.6,52.0,30.06,NNE,17,3.2,5.0,41,0.00,CLR,,0.00,751.0,WeatherDisplay:10.37,2013-07-23 20:42:00,
2013-07-23 15:47:00,78.0,52.4,30.05,North,351,2.6,5.0,41,0.00,CLR,,0.00,752.0,WeatherDisplay:10.37,2013-07-23 20:47:00,
2013-07-23 15:52:00,78.7,54.3,30.05,North,350,2.7,8.1,43,0.00,CLR,,0.00,770.0,WeatherDisplay:10.37,2013-07-23 20:52:00,
2013-07-23 15:57:00,79.1,52.7,30.05,NNW,340,3.9,5.8,40,0.00,CLR,,0.00,738.0,WeatherDisplay:10.37,2013-07-23 20:57:00,
2013-07-23 16:02:00,78.6,53.6,30.05,NE,42,1.9,7.0,42,0.00,CLR,,0.00,689.0,WeatherDisplay:10.37,2013-07-23 21:02:00,
2013-07-23 16:07:00,77.6,52.7,30.05,NNE,30,2.1,4.6,42,0.00,CLR,,0.00,705.0,WeatherDisplay:10.37,2013-07-23 21:07:00,
2013-07-23 16:12:00,77.8,52.9,30.05,ENE,73,5.9,9.0,42,0.00,CLR,,0.00,708.0,WeatherDisplay:10.37,2013-07-23 21:12:00,
2013-07-23 16:17:00,77.5,52.6,30.05,North,11,3.4,6.0,42,0.00,CLR,,0.00,698.0,WeatherDisplay:10.37,2013-07-23 21:17:00,
2013-07-23 16:22:00,77.2,53.0,30.05,ENE,59,3.4,8.0,43,0.00,CLR,,0.00,338.0,WeatherDisplay:10.37,2013-07-23 21:22:00,
2013-07-23 16:27:00,77.1,52.9,30.05,NE,41,2.6,11.0,43,0.00,CLR,,0.00,670.0,WeatherDisplay:10.37,2013-07-23 21:27:00,
2013-07-23 16:32:00,77.7,52.1,30.05,NE,51,3.6,7.0,41,0.00,CLR,,0.00,656.0,WeatherDisplay:10.37,2013-07-23 21:32:00,
2013-07-23 16:37:00,78.4,52.1,30.05,NW,326,4.1,7.0,40,0.00,CLR,,0.00,594.0,WeatherDisplay:10.37,2013-07-23 21:37:00,
2013-07-23 16:42:00,77.9,52.3,30.05,NNE,26,2.8,5.0,41,0.00,CLR,,0.00,589.0,WeatherDisplay:10.37,2013-07-23 21:42:00,
2013-07-23 16:47:00,77.2,52.3,30.05,NNW,344,1.4,5.0,42,0.00,CLR,,0.00,570.0,WeatherDisplay:10.37,2013-07-23 21:47:00,
2013-07-23 16:53:00,77.0,53.4,30.05,NE,45,5.6,7.0,44,0.00,CLR,,0.00,622.0,WeatherDisplay:10.37,2013-07-23 21:53:00,
2013-07-23 16:58:00,77.4,54.4,30.05,NNW,343,3.9,9.2,45,0.00,CLR,,0.00,663.0,WeatherDisplay:10.37,2013-07-23 21:58:00,
2013-07-23 17:03:00,77.2,53.0,30.05,NW,323,1.4,4.0,43,0.00,CLR,,0.00,663.0,WeatherDisplay:10.37,2013-07-23 22:03:00,
2013-07-23 17:08:00,77.1,53.5,30.05,NE,49,0.3,1.2,44,0.00,CLR,,0.00,619.0,WeatherDisplay:10.37,2013-07-23 22:08:00,
2013-07-23 17:13:00,77.0,53.4,30.05,NE,43,2.7,5.0,44,0.00,CLR,,0.00,151.0,WeatherDisplay:10.37,2013-07-23 22:13:00,
2013-07-23 17:18:00,76.9,52.7,30.05,NNW,334,2.2,4.6,43,0.00,CLR,,0.00,536.0,WeatherDisplay:10.37,2013-07-23 22:18:00,
2013-07-23 17:23:00,77.0,52.8,30.05,NNW,336,2.2,4.0,43,0.00,CLR,,0.00,547.0,WeatherDisplay:10.37,2013-07-23 22:23:00,
2013-07-23 17:28:00,77.8,52.9,30.05,NE,44,2.3,5.8,42,0.00,CLR,,0.00,522.0,WeatherDisplay:10.37,2013-07-23 22:28:00,
2013-07-23 17:33:00,78.0,53.7,30.05,NNW,341,2.7,7.0,43,0.00,CLR,,0.00,526.0,WeatherDisplay:10.37,2013-07-23 22:33:00,
2013-07-23 17:39:00,78.3,54.0,30.05,NE,56,3.3,5.0,43,0.00,CLR,,0.00,513.0,WeatherDisplay:10.37,2013-07-23 22:39:00,
2013-07-23 17:44:00,77.6,53.3,30.05,NW,321,3.6,8.0,43,0.00,CLR,,0.00,531.0,WeatherDisplay:10.37,2013-07-23 22:44:00,
2013-07-23 17:49:00,77.2,53.0,30.05,NNW,327,2.8,5.0,43,0.00,CLR,,0.00,151.0,WeatherDisplay:10.37,2013-07-23 22:49:00,
2013-07-23 17:54:00,76.4,52.2,30.05,North,5,3.4,5.0,43,0.00,CLR,,0.00,178.0,WeatherDisplay:10.37,2013-07-23 22:54:00,
2013-07-23 17:59:00,75.9,52.4,30.05,WNW,297,4.5,6.0,44,0.00,CLR,,0.00,462.0,WeatherDisplay:10.37,2013-07-23 22:59:00,
2013-07-23 18:04:00,76.4,53.5,30.05,NE,53,3.9,8.1,45,0.00,BKN,,0.00,448.0,WeatherDisplay:10.37,2013-07-23 23:04:00,
2013-07-23 18:09:00,76.0,53.7,30.05,NNE,28,2.0,4.0,46,0.00,BKN,,0.00,436.0,WeatherDisplay:10.37,2013-07-23 23:09:00,
2013-07-23 18:14:00,75.9,54.2,30.05,NE,49,1.2,3.0,47,0.00,BKN,,0.00,218.0,WeatherDisplay:10.37,2013-07-23 23:14:00,
2013-07-23 18:19:00,74.5,54.1,30.05,ENE,72,1.8,4.0,49,0.00,BKN,,0.00,116.0,WeatherDisplay:10.37,2013-07-23 23:19:00,
2013-07-23 18:24:00,73.9,53.5,30.05,ENE,75,2.1,4.0,49,0.00,BKN,,0.00,357.0,WeatherDisplay:10.37,2013-07-23 23:24:00,
2013-07-23 18:29:00,73.6,53.8,30.05,ENE,74,1.4,3.5,50,0.00,BKN,,0.00,181.0,WeatherDisplay:10.37,2013-07-23 23:29:00,
2013-07-23 18:34:00,73.7,53.3,30.05,ENE,73,1.6,3.0,49,0.00,BKN,,0.00,171.0,WeatherDisplay:10.37,2013-07-23 23:34:00,
2013-07-23 18:40:00,74.1,53.7,30.05,NNW,339,1.7,3.5,49,0.00,BKN,,0.00,163.0,WeatherDisplay:10.37,2013-07-23 23:40:00,
2013-07-23 18:45:00,74.1,53.7,30.05,NE,51,3.4,6.0,49,0.00,BKN,,0.00,149.0,WeatherDisplay:10.37,2013-07-23 23:45:00,
2013-07-23 18:50:00,73.7,53.9,30.05,NE,36,1.7,4.6,50,0.00,BKN,,0.00,172.0,WeatherDisplay:10.37,2013-07-23 23:50:00,
2013-07-23 18:55:00,73.7,54.4,30.05,East,98,3.3,6.0,51,0.00,BKN,,0.00,294.0,WeatherDisplay:10.37,2013-07-23 23:55:00,
2013-07-23 19:00:00,74.1,54.3,30.05,NE,34,1.6,4.0,50,0.00,BKN,,0.00,251.0,WeatherDisplay:10.37,2013-07-24 00:00:00,
2013-07-23 19:05:00,74.3,55.5,30.05,NE,50,0.6,3.5,52,0.00,CLR,,0.00,253.0,WeatherDisplay:10.37,2013-07-24 00:05:00,
2013-07-23 19:10:00,74.3,54.4,30.05,NE,54,5.0,8.0,50,0.00,CLR,CLR,0.00,232.0,WeatherDisplay:10.37,2013-07-24 00:10:00,
2013-07-23 19:15:00,74.0,54.2,30.05,NE,43,2.0,8.0,50,0.00,CLR,CLR,0.00,200.0,WeatherDisplay:10.37,2013-07-24 00:15:00,
2013-07-23 19:20:00,73.6,54.9,30.05,NE,34,2.0,4.0,52,0.00,CLR,CLR,0.00,163.0,WeatherDisplay:10.37,2013-07-24 00:20:00,
2013-07-23 19:25:00,72.9,54.8,30.05,ENE,57,3.0,5.0,53,0.00,CLR,CLR,0.00,155.0,WeatherDisplay:10.37,2013-07-24 00:25:00,
2013-07-23 19:31:00,72.7,55.1,30.05,NE,48,1.4,3.5,54,0.00,CLR,,0.00,135.0,WeatherDisplay:10.37,2013-07-24 00:31:00,
2013-07-23 19:38:00,72.6,55.5,30.05,NE,47,1.0,3.0,55,0.00,CLR,,0.00,127.0,WeatherDisplay:10.37,2013-07-24 00:38:00,
2013-07-23 19:43:00,72.3,55.2,30.05,ENE,64,1.4,3.5,55,0.00,CLR,,0.00,113.0,WeatherDisplay:10.37,2013-07-24 00:43:00,
2013-07-23 19:48:00,72.1,55.5,30.05,ENE,63,1.3,5.0,56,0.00,CLR,,0.00,104.0,WeatherDisplay:10.37,2013-07-24 00:48:00,
2013-07-23 19:53:00,71.7,55.2,30.05,NNE,33,0.8,2.3,56,0.00,CLR,,0.00,88.0,WeatherDisplay:10.37,2013-07-24 00:53:00,
2013-07-23 19:58:00,71.5,55.5,30.05,NE,34,1.3,2.3,57,0.00,CLR,,0.00,74.0,WeatherDisplay:10.37,2013-07-24 00:58:00,
2013-07-23 20:03:00,71.4,55.4,30.06,NE,36,0.6,2.3,57,0.00,CLR,,0.00,56.0,WeatherDisplay:10.37,2013-07-24 01:03:00,
2013-07-23 20:08:00,71.0,55.0,30.06,NE,54,0.9,3.0,57,0.00,CLR,,0.00,49.0,WeatherDisplay:10.37,2013-07-24 01:08:00,
2013-07-23 20:14:00,70.7,55.7,30.06,NE,54,0.1,1.2,59,0.00,CLR,,0.00,39.0,WeatherDisplay:10.37,2013-07-24 01:14:00,
2013-07-23 20:19:00,70.6,55.6,30.06,NE,52,0.1,2.3,59,0.00,CLR,,0.00,30.0,WeatherDisplay:10.37,2013-07-24 01:19:00,
2013-07-23 20:24:00,70.3,55.3,30.06,NE,50,0.1,3.5,59,0.00,CLR,,0.00,21.0,WeatherDisplay:10.37,2013-07-24 01:24:00,
2013-07-23 20:29:00,69.9,55.4,30.06,NE,49,0.1,1.2,60,0.00,CLR,,0.00,18.0,WeatherDisplay:10.37,2013-07-24 01:29:00,
2013-07-23 20:34:00,69.5,55.0,30.06,NE,47,0.1,1.2,60,0.00,CLR,,0.00,14.0,WeatherDisplay:10.37,2013-07-24 01:34:00,
2013-07-23 20:39:00,69.1,55.1,30.06,NE,47,0.1,1.2,61,0.00,CLR,,0.00,12.0,WeatherDisplay:10.37,2013-07-24 01:39:00,
2013-07-23 20:44:00,68.8,54.8,30.06,NE,45,0.0,1.2,61,0.00,CLR,,0.00,9.0,WeatherDisplay:10.37,2013-07-24 01:44:00,
2013-07-23 20:49:00,68.4,54.9,30.06,NE,48,1.1,2.3,62,0.00,CLR,,0.00,7.0,WeatherDisplay:10.37,2013-07-24 01:49:00,
2013-07-23 20:54:00,68.0,54.5,30.06,NE,51,1.3,3.5,62,0.00,CLR,,0.00,5.0,WeatherDisplay:10.37,2013-07-24 01:54:00,
2013-07-23 20:59:00,67.9,54.4,30.06,NE,45,0.5,2.3,62,0.00,CLR,,0.00,0.0,WeatherDisplay:10.37,2013-07-24 01:59:00,
2013-07-23 21:04:00,67.6,54.1,30.05,ENE,58,1.1,3.5,62,0.00,CLR,,0.00,0.0,WeatherDisplay:10.37,2013-07-24 02:04:00,
2013-07-23 21:09:00,67.4,54.4,30.05,NE,50,0.1,1.2,63,0.00,CLR,,0.00,0.0,WeatherDisplay:10.37,2013-07-24 02:09:00,
2013-07-23 21:14:00,67.1,54.5,30.05,NE,44,0.1,1.2,64,0.00,CLR,,0.00,0.0,WeatherDisplay:10.37,2013-07-24 02:14:00,
2013-07-23 21:20:00,66.8,54.2,30.06,NE,47,0.0,1.2,64,0.00,CLR,,0.00,0.0,WeatherDisplay:10.37,2013-07-24 02:20:00,
2013-07-23 21:25:00,66.7,54.1,30.06,NE,46,0.0,0.0,64,0.00,CLR,,0.00,0.0,WeatherDisplay:10.37,2013-07-24 02:25:00,
2013-07-23 21:30:00,66.7,54.1,30.06,NE,45,0.0,0.0,64,0.00,CLR,,0.00,0.0,WeatherDisplay:10.37,2013-07-24 02:30:00,
2013-07-23 21:35:00,66.6,54.0,30.06,NE,44,0.1,1.2,64,0.00,CLR,,0.00,0.0,WeatherDisplay:10.37,2013-07-24 02:35:00,
2013-07-23 21:40:00,66.5,53.9,30.07,NE,45,0.7,2.3,64,0.00,CLR,,0.00,0.0,WeatherDisplay:10.37,2013-07-24 02:40:00,
2013-07-23 21:45:00,66.3,54.2,30.07,NE,45,0.0,0.0,65,0.00,CLR,,0.00,0.0,WeatherDisplay:10.37,2013-07-24 02:45:00,
2013-07-23 21:50:00,66.2,53.7,30.07,NE,45,0.0,0.0,64,0.00,CLR,,0.00,0.0,WeatherDisplay:10.37,2013-07-24 02:50:00,
2013-07-23 21:55:00,66.1,54.0,30.07,NE,45,0.0,0.0,65,0.00,CLR,,0.00,0.0,WeatherDisplay:10.37,2013-07-24 02:55:00,
2013-07-23 22:00:00,65.8,54.1,30.07,NE,45,0.0,0.0,66,0.00,CLR,,0.00,0.0,WeatherDisplay:10.37,2013-07-24 03:00:00,
2013-07-23 22:05:00,65.3,54.1,30.07,NE,45,0.0,0.0,67,0.00,CLR,,0.00,0.0,WeatherDisplay:10.37,2013-07-24 03:05:00,
2013-07-23 22:11:00,65.1,53.9,30.08,NE,45,0.0,0.0,67,0.00,CLR,,0.00,0.0,WeatherDisplay:10.37,2013-07-24 03:11:00,
2013-07-23 22:16:00,64.9,54.1,30.08,NE,45,0.0,0.0,68,0.00,CLR,,0.00,0.0,WeatherDisplay:10.37,2013-07-24 03:16:00,
2013-07-23 22:21:00,64.7,53.9,30.08,NE,45,0.0,0.0,68,0.00,CLR,,0.00,0.0,WeatherDisplay:10.37,2013-07-24 03:21:00,
2013-07-23 22:27:00,64.3,53.9,30.08,NE,45,0.0,0.0,69,0.00,CLR,,0.00,0.0,WeatherDisplay:10.37,2013-07-24 03:27:00,
2013-07-23 22:34:00,64.1,54.1,30.08,NE,45,0.0,0.0,70,0.00,CLR,,0.00,0.0,WeatherDisplay:10.37,2013-07-24 03:34:00,
2013-07-23 22:39:00,63.9,54.3,30.08,NE,45,0.0,0.0,71,0.00,CLR,,0.00,0.0,WeatherDisplay:10.37,2013-07-24 03:39:00,
2013-07-23 22:44:00,63.8,54.2,30.08,NE,45,0.0,0.0,71,0.00,CLR,,0.00,0.0,WeatherDisplay:10.37,2013-07-24 03:44:00,
2013-07-23 22:49:00,64.1,54.1,30.08,NE,45,0.0,0.0,70,0.00,CLR,,0.00,0.0,WeatherDisplay:10.37,2013-07-24 03:49:00,
2013-07-23 22:54:00,64.3,53.9,30.08,NE,45,0.0,0.0,69,0.00,CLR,,0.00,0.0,WeatherDisplay:10.37,2013-07-24 03:54:00,
2013-07-23 22:59:00,64.3,53.9,30.08,NE,45,0.0,0.0,69,0.00,CLR,,0.00,0.0,WeatherDisplay:10.37,2013-07-24 03:59:00,
2013-07-23 23:01:00,64.4,54.0,30.08,NE,45,0.0,0.0,69,0.00,CLR,,0.00,0.0,WeatherDisplay:10.37,2013-07-24 04:01:00,
2013-07-23 23:02:00,64.5,54.1,30.08,NE,45,0.0,0.0,69,0.00,CLR,,0.00,0.0,WeatherDisplay:10.37,2013-07-24 04:02:00,
2013-07-23 23:03:00,64.4,54.0,30.08,NE,45,0.0,0.0,69,0.00,CLR,,0.00,0.0,WeatherDisplay:10.37,2013-07-24 04:03:00,
2013-07-23 23:04:00,64.4,54.0,30.08,NE,45,0.0,0.0,69,0.00,CLR,,0.00,0.0,WeatherDisplay:10.37,2013-07-24 04:04:00,
2013-07-23 23:05:00,64.4,54.0,30.08,NE,45,0.0,0.0,69,0.00,CLR,CLR,0.00,0.0,WeatherDisplay:10.37,2013-07-24 04:05:00,
2013-07-23 23:10:00,64.3,54.3,30.08,NE,45,0.0,0.0,70,0.00,CLR,CLR,0.00,0.0,WeatherDisplay:10.37,2013-07-24 04:10:00,
2013-07-23 23:15:00,64.1,54.1,30.08,NE,45,0.0,0.0,70,0.00,CLR,CLR,0.00,0.0,WeatherDisplay:10.37,2013-07-24 04:15:00,
2013-07-23 23:20:00,64.0,54.0,30.08,NE,45,0.0,0.0,70,0.00,CLR,CLR,0.00,0.0,WeatherDisplay:10.37,2013-07-24 04:20:00,
2013-07-23 23:25:00,63.6,54.4,30.08,NE,45,0.0,0.0,72,0.00,CLR,CLR,0.00,0.0,WeatherDisplay:10.37,2013-07-24 04:25:00,
2013-07-23 23:30:00,63.0,54.6,30.07,NE,45,0.0,0.0,74,0.00,CLR,CLR,0.00,0.0,WeatherDisplay:10.37,2013-07-24 04:30:00,
2013-07-23 23:35:00,62.8,54.8,30.07,NE,45,0.0,0.0,75,0.00,CLR,CLR,0.00,0.0,WeatherDisplay:10.37,2013-07-24 04:35:00,
2013-07-23 23:40:00,62.7,54.7,30.07,NE,45,0.0,0.0,75,0.00,CLR,CLR,0.00,0.0,WeatherDisplay:10.37,2013-07-24 04:40:00,
2013-07-23 23:46:00,62.7,54.3,30.07,NE,45,0.0,0.0,74,0.00,CLR,,0.00,0.0,WeatherDisplay:10.37,2013-07-24 04:46:00,
2013-07-23 23:51:00,62.6,54.6,30.07,NE,45,0.0,0.0,75,0.00,CLR,,0.00,0.0,WeatherDisplay:10.37,2013-07-24 04:51:00,
2013-07-23 23:56:00,62.2,54.5,30.07,NE,45,0.0,0.0,76,0.00,CLR,,0.00,0.0,WeatherDisplay:10.37,2013-07-24 04:56:00,